ASIASAT 6

Last updated on Thu Jul 03 2025 00:02:46 GMT+0000 (Coordinated Universal Time)

1 40141U 14052A 25183.62792804 -.00000355 00000+0 00000+0 0 9991 2 40141 0.0261 95.4876 0000702 10.8735 160.5017 1.00270785 39566
UTC large
Height (km)
Speed (km/s)
/
Latitude / Longitude
Inclination (degrees)
Orbital Period (minutes)
Azimuth
Elevation
Range (km)
Doppler Factor

Next 0 passes for location: London (51.5072 / 0.1276)

Sorry there are no passes over London.